Weather observations for the past three days for
Marion - Williamson County Regional Airport
Imperial (Metric)
Date Time (cdt) Wind (mph) Vis. (mi.) Weather Sky Cond. Temperature (ºF) Relative Humidity Wind Chill (°F) Heat Index (°F) Pressure Precipitation (in)
Air Dwpt 6 hour altimeter (in) sea level (mb) 1 hr 3 hr 6 hr
Max. Min.
24 07:46 E 8 20.00 Fair CLR 75.2 66.2 74% 77 30 0.0
24 06:55 Calm 10.00 Fair CLR 73.4 66.2 78% 30 0.0
24 06:35 Calm 10.00 Fair CLR 67.8 66.7 96% 29.99 0.0
24 06:15 Calm 10.00 Fair CLR 66.2 65.1 96% 29.98 0.0
24 05:55 Calm 7.00 Fair CLR 64.4 63.3 96% 29.97 0.0
24 05:35 Calm 3.00 Fog/Mist CLR 65.1 63.9 96% 29.97 0.0
24 05:15 Calm 1.75 Fog/Mist VV007 64.8 63.7 96% 29.96 0.0
24 04:55 Calm 10.00 Fair CLR 65.3 64.2 96% 29.96 0.0
24 04:35 Calm 10.00 Fair CLR 65.8 64.8 96% 29.95 0.0
24 04:15 Calm 10.00 Fair CLR 66 65.1 97% 29.95 0.0
24 03:55 Calm 10.00 Fair CLR 65.8 64.8 96% 29.94 0.0
24 03:35 Calm 10.00 Fair CLR 66.7 65.7 96% 29.93 0.0
24 03:15 Calm 10.00 Fair CLR 66.9 65.8 96% 29.93 0.0
24 02:55 Calm 10.00 Fair CLR 67.6 66.6 96% 29.93 0.0
24 02:35 Calm 10.00 Fair CLR 67.3 66.2 96% 29.93 0.0
24 02:15 Calm 10.00 Fair CLR 67.3 66.2 96% 29.93 0.0
24 01:55 Calm 10.00 Fair CLR 68 67.1 97% 29.93 0.0
24 01:35 Calm 10.00 Fair CLR 67.8 66.6 96% 29.92 0.0
24 01:15 Calm 10.00 Fair CLR 69.1 66.6 92% 29.93 0.0
24 00:55 Calm 10.00 Fair CLR 69.6 66.9 87.8 68.9 91% 29.93 0.0
24 00:35 Calm 10.00 Fair CLR 69.1 67.1 93% 29.92 0.0
24 00:15 Calm 10.00 Fair CLR 69.8 67.1 91% 29.92 0.0
23 23:55 Calm 10.00 Fair CLR 69.4 66.4 90% 29.92 0.0
23 23:35 Calm 10.00 Fair CLR 70.9 66.2 85% 29.92 0.0
23 23:15 Calm 10.00 Fair CLR 71.4 67.1 86% 29.91 0.0
23 22:55 Calm 10.00 Fair CLR 74.5 64.6 71% 29.91 0.0
23 22:35 Calm 10.00 Fair CLR 77.5 62.8 61% 79 29.9 0.0
23 22:15 NW 3 10.00 Fair CLR 76.8 63.1 63% 79 29.9 0.0
23 21:55 Calm 10.00 Fair CLR 72.1 65.3 79% 29.89 0.0
23 21:35 Calm 10.00 Fair CLR 73.9 64.9 74% 29.88 0.0
23 21:15 Calm 10.00 Fair CLR 74.7 65.5 73% 29.88 0.0
23 20:55 Calm 10.00 Fair CLR 76.6 65.7 69% 78 29.87 0.0
23 20:35 Calm 10.00 Fair CLR 78.1 65.1 65% 80 29.87 0.0
23 20:15 Calm 10.00 Fair CLR 78.8 64.8 62% 81 29.87 0.0
23 19:35 N 3 10.00 Fair CLR 85.6 61 44% 86 29.86 0.0
23 18:45 NW 5 10.00 Partly Cloudy SCT055 87.8 64.4 46% 89 29.86 0.0
23 17:45 NW 6 10.00 Partly Cloudy SCT055 89.6 64.4 43% 91 29.86 0.0
23 16:45 NW 5 10.00 Mostly Cloudy BKN049 89.6 64.4 43% 91 29.86 0.0
23 15:45 W 6 10.00 Mostly Cloudy BKN049 89.6 66.2 46% 92 29.86 0.0
23 14:45 NW 9 10.00 Partly Cloudy SCT045 SCT055 87.8 69.8 55% 93 29.87 0.0
23 13:45 NW 9 10.00 Partly Cloudy SCT040 SCT046 SCT060 87.8 69.8 55% 93 29.87 0.0
23 12:45 NW 7 10.00 Mostly Cloudy BKN036 BKN050 87.8 69.8 55% 93 29.87 0.0
23 11:45 W 7 10.00 Mostly Cloudy BKN025 BKN031 84.2 73.4 70% 91 29.87 0.0
23 10:45 SW 7 10.00 Overcast OVC034 82.4 75.2 79% 89 29.86 0.0
23 09:45 SW 6 10.00 Overcast OVC032 78.8 75.2 89% 82 29.85 0.0
23 08:45 SW 6 10.00 Overcast OVC036 77 75.2 94% 78 29.85 0.0
23 07:45 S 7 10.00 Overcast OVC042 75.2 73.4 94% 74 29.85 0.0
23 06:45 W 3 10.00 Overcast OVC050 75.2 73.4 94% 74 29.85 0.0
23 06:35 S 9 7.00 Light Rain OVC050 74.3 73.4 97% 29.85 0.0 0.07
23 06:15 S 5 10.00 Rain SCT040 SCT046 OVC050 74.3 73.4 97% 29.85 0.0 0.02
23 05:55 SW 5 3.00 Heavy Rain SCT021 BKN048 OVC060 74.8 73.6 96% 29.87 0.0 0.21
23 05:35 SW 7 10.00 Light Rain BKN060 OVC075 76.3 73.6 91% 76 29.86 0.0 0.03
23 05:15 SW 8 10.00 Light Rain OVC075 77 73.2 88% 78 29.85 0.0 0.03
23 04:55 SW 7 10.00 Mostly Cloudy BKN075 BKN090 78.8 72.1 80% 82 29.85 0.0
23 04:35 SW 6 10.00 Mostly Cloudy BKN075 BKN100 78.6 72.5 82% 82 29.85 0.0
23 04:15 SW 9 G 16 10.00 Overcast BKN085 OVC110 79.7 71.6 76% 83 29.84 0.0
23 03:55 SW 9 10.00 Partly Cloudy SCT095 SCT110 79.5 71.6 77% 83 29.85 0.0
23 03:35 SW 9 10.00 Partly Cloudy SCT095 79.5 71.6 77% 83 29.85 0.0
23 03:15 SW 9 10.00 Fair CLR 79.2 71.6 78% 82 29.85 0.0
23 02:55 SW 8 10.00 Fair CLR 78.6 71.4 79% 81 29.86 0.0
23 02:35 S 8 10.00 Fair CLR 77.2 71.1 81% 79 29.87 0.0
23 02:15 S 7 10.00 Fair CLR 77.9 70.7 79% 80 29.88 0.0
23 01:55 SW 6 10.00 Fair CLR 77.4 70.7 80% 79 29.88 0.0
23 01:35 SW 8 10.00 Fair CLR 78.4 70.3 76% 81 29.88 0.0
23 01:15 SW 9 10.00 Fair CLR 79.2 69.8 73% 82 29.88 0.0
23 00:55 S 10 10.00 Fair CLR 79 69.8 87.1 77.7 74% 82 29.87 0.0
23 00:35 SW 9 10.00 Fair CLR 79.3 69.4 72% 82 29.88 0.0
23 00:15 S 10 10.00 Fair CLR 78.8 69.3 73% 81 29.88 0.0
22 23:55 SW 9 10.00 Fair CLR 78.8 68.9 72% 81 29.89 0.0
22 23:35 SW 8 10.00 Fair CLR 79 68.9 71% 81 29.89 0.0
22 23:15 SW 9 10.00 Fair CLR 79.5 69.3 71% 82 29.9 0.0
22 22:55 SW 7 10.00 Fair CLR 79.2 70.2 74% 82 29.9 0.0
22 22:35 SW 7 10.00 Fair CLR 78.4 70.7 77% 81 29.9 0.0
22 22:15 S 6 10.00 Fair CLR 78.1 70.9 79% 80 29.91 0.0
22 21:55 SW 7 10.00 Fair CLR 79.5 70.7 75% 83 29.9 0.0
22 21:35 SW 6 10.00 Fair CLR 79.5 70.2 73% 83 29.9 0.0
22 21:15 SW 7 10.00 Fair CLR 80.6 70.3 71% 84 29.9 0.0
22 20:55 SW 7 10.00 Fair CLR 80.8 70.7 72% 84 29.9 0.0
22 20:35 SW 6 10.00 Fair CLR 81.9 69.6 67% 85 29.91 0.0
22 20:15 SW 7 10.00 Fair CLR 82.4 69.4 65% 86 29.92 0.0
22 19:55 SW 6 10.00 Partly Cloudy SCT050 84.6 69.1 60% 88 29.92 0.0
22 19:35 S 7 10.00 Mostly Cloudy BKN050 86 68.9 57% 90 29.92 0.0
22 19:15 SW 6 10.00 Partly Cloudy SCT050 85.1 68.7 58% 89 29.93 0.0
22 18:50 S 9 20.00 Partly Cloudy SCT050 87.8 68 52% 91 29.92 0.0
22 17:45 SW 14 20.00 Partly Cloudy SCT100 89.6 66.2 46% 92 29.93 0.0
22 16:45 S 18 G 23 20.00 Mostly Cloudy BKN065 91.4 66.2 44% 94 29.95 0.0
22 15:50 S 18 20.00 Partly Cloudy SCT045 91.4 66.2 44% 94 29.97 0.0
22 13:45 S 17 G 23 20.00 Mostly Cloudy BKN055 BKN070 91.4 69.8 49% 97 30 0.0
22 12:45 SW 13 20.00 Mostly Cloudy SCT046 BKN055 BKN070 89.6 71.6 55% 96 30.02 0.0
22 11:45 S 13 20.00 Partly Cloudy SCT046 89.6 69.8 52% 95 30.04 0.0
22 10:45 SW 10 20.00 A Few Clouds FEW150 87.8 71.6 59% 94 30.06 0.0
22 09:45 SW 9 20.00 A Few Clouds FEW150 84.2 71.6 66% 90 30.07 0.0
22 08:45 SW 9 20.00 A Few Clouds FEW150 84.2 71.6 66% 90 30.09 0.0
22 07:45 S 6 20.00 Partly Cloudy SCT150 78.8 71.6 79% 82 30.09 0.0
22 06:45 SW 6 20.00 Partly Cloudy SCT150 73.4 69.8 89% 30.09 0.0
22 06:35 S 5 10.00 Fair CLR 73 70.5 92% 30.1 0.0
22 06:15 S 3 10.00 Fair CLR 71.6 69.3 92% 30.1 0.0
22 05:55 Calm 10.00 Fair CLR 72.3 68.9 89% 30.1 0.0
22 05:35 S 5 10.00 Fair CLR 70.5 68.9 95% 30.1 0.0
22 05:15 S 5 10.00 Fair CLR 70.9 69.3 95% 30.1 0.0
22 04:55 Calm 10.00 Fair CLR 70.5 69.1 95% 30.1 0.0
22 04:35 Calm 10.00 Fair CLR 71.1 69.3 94% 30.11 0.0
22 04:15 S 3 10.00 Fair CLR 71.2 68.9 92% 30.12 0.0
22 03:55 S 3 10.00 Fair CLR 72.5 69.1 89% 30.11 0.0
22 03:35 Calm 10.00 Fair CLR 72.9 69.1 88% 30.11 0.0
22 03:15 Calm 10.00 Fair CLR 73.9 69.3 85% 30.11 0.0
22 02:55 Calm 10.00 Fair CLR 74.1 69.3 85% 30.11 0.0
22 02:35 Calm 10.00 Fair CLR 73.4 69.8 89% 30.11 0.0
22 02:15 Calm 10.00 Fair CLR 74.3 69.6 85% 30.12 0.0
22 01:55 S 3 10.00 Fair CLR 73.8 69.4 86% 30.11 0.0
22 01:35 Calm 10.00 Fair CLR 74.3 69.3 84% 30.11 0.0
22 01:15 Calm 10.00 Fair CLR 74.5 69.3 84% 30.12 0.0
22 00:55 Calm 10.00 Fair CLR 73.9 69.4 87.3 72.5 86% 30.12 0.0
22 00:35 Calm 10.00 Fair CLR 75.4 69.1 81% 76 30.12 0.0
22 00:15 Calm 10.00 Fair CLR 76.3 69.4 79% 77 30.12 0.0
21 23:55 Calm 10.00 Fair CLR 75.2 71.1 87% 75 30.12 0.0
21 23:35 Calm 10.00 Fair CLR 73.2 70.5 91% 30.12 0.0
21 23:15 Calm 10.00 Fair CLR 73.8 70 88% 30.12 0.0
21 22:55 Calm 10.00 Fair CLR 73.8 69.8 88% 30.12 0.0
21 22:35 Calm 10.00 Fair CLR 72.5 69.1 89% 30.12 0.0
21 22:15 Calm 10.00 Fair CLR 75 69.4 83% 75 30.12 0.0
21 21:55 Calm 10.00 Fair CLR 75.6 69.6 82% 76 30.12 0.0
21 21:35 Calm 10.00 Fair CLR 75.2 70 84% 75 30.12 0.0
21 21:15 Calm 10.00 Fair CLR 75.6 70 83% 76 30.12 0.0
21 20:55 Calm 10.00 Fair CLR 78.3 68.4 72% 80 30.12 0.0
21 20:35 Calm 10.00 Fair CLR 78.4 67.8 70% 81 30.12 0.0
21 20:15 Calm 10.00 Fair CLR 80.8 67.5 64% 83 30.12 0.0
21 19:55 Calm 10.00 Partly Cloudy SCT002 84.2 65.5 53% 86 30.13 0.0
21 19:35 SW 3 10.00 Fair CLR 85.6 65.1 50% 87 30.13 0.0
21 19:15 SW 3 10.00 Fair CLR 86.7 64.8 48% 88 30.13 0.0
21 18:45 SW 8 20.00 Partly Cloudy SCT150 87.8 68 52% 91 30.13 0.0
21 17:45 SW 6 20.00 Partly Cloudy SCT120 89.6 66.2 46% 92 30.13 0.0
21 16:45 SW 6 20.00 Partly Cloudy SCT055 89.6 64.4 43% 91 30.14 0.0
21 15:45 W 6 20.00 Partly Cloudy SCT055 89.6 68 49% 93 30.16 0.0
21 14:45 SW 10 20.00 Partly Cloudy SCT055 89.6 68 49% 93 30.18 0.0
21 13:45 SW 7 20.00 Mostly Cloudy SCT050 BKN080 89.6 66.2 46% 92 30.2 0.0
21 12:47 SW 12 10.00 Partly Cloudy SCT050 89.6 66.2 46% 92 30.24 0.0
21 11:47 SW 12 10.00 Partly Cloudy SCT050 89.6 66.2 46% 92 30.24 0.0
21 10:47 SW 6 10.00 Partly Cloudy SCT200 87.8 69.8 55% 93 30.25 0.0
21 09:47 Calm 10.00 Partly Cloudy SCT200 84.2 69.8 62% 88 30.26 0.0
21 08:47 Calm 10.00 Partly Cloudy SCT200 82.4 69.8 66% 86 30.26 0.0
Date Time (cdt) Wind (mph) Vis. (mi.) Weather Sky Cond. Air Dwpt Max. Min. Relative Humidity Wind Chill (°F) Heat Index (°F) altimeter (in) sea level (mb) 1 hr 3 hr 6 hr
6 hour
Temperature (ºF) Pressure Precipitation (in)